Location: Unspecified
(0.0000°N, 0.0000°E)
Time: 14:12:08
(UTC+00:00)

Envisat - Pass Details

Date: 11 March 2018
Orbit: 764 x 766 km, 98.2° (Epoch: 21 June)

Event Time Altitude Azimuth Distance (km) Brightness Sun altitude
Enters shadow 19:13:03 - 148° (SSE) 3,253 6.0 -15.7°
Exits shadow 19:21:24 24° 50° (NE) 1,528 4.1 -17.8°
Drops below altitude 10° 19:24:16 10° 20° (NNE) 2,290 5.2 -18.5°
Sets 19:26:50 0° 9° (N) 3,213 6.1 -19.2°
